• In Belgium
  • List of Countries
  • For 7 days
  • Water Temperature
  • Satellite Maps
  • Weather Map
  • Weather Widgets
  • user-avatar
    Login

    Hourly Weather Ansembourg

    Today, 14 December, Thursday

    Time Temperature Precipitation Wind Pressure Humidity
    00:00 +3°C° 1.1 mm 7 mps 718 mmHg 89%
    01:00 +2°C° 0.7 mm 8 mps 718 mmHg 86%
    02:00 +2°C° 0.7 mm 9 mps 718 mmHg 83%
    03:00 +1°C° 0.7 mm 10 mps 718 mmHg 81%
    04:00 0°C° 0.1 mm 9 mps 719 mmHg 81%
    05:00 0°C° 0.1 mm 8 mps 720 mmHg 81%
    06:00 -1°C° 0.1 mm 7 mps 721 mmHg 81%
    07:00 -1°C° 0.1 mm 8 mps 721 mmHg 82%
    08:00 0°C° 0.1 mm 8 mps 722 mmHg 82%
    09:00 0°C° 0.1 mm 8 mps 722 mmHg 83%
    10:00 0°C° 0.5 mm 8 mps 722 mmHg 83%
    11:00 0°C° 0.5 mm 8 mps 722 mmHg 84%
    12:00 +1°C° 0.5 mm 8 mps 721 mmHg 85%
    13:00 +2°C° 0.8 mm 7 mps 720 mmHg 86%
    14:00 +2°C° 0.8 mm 7 mps 720 mmHg 88%
    15:00 +2°C° 0.8 mm 6 mps 719 mmHg 89%
    16:00 +2°C° 0.8 mm 6 mps 719 mmHg 91%
    17:00 +1°C° 0.8 mm 5 mps 718 mmHg 92%
    18:00 +1°C° 0.8 mm 4 mps 717 mmHg 94%
    19:00 +1°C° 0.6 mm 4 mps 717 mmHg 94%
    20:00 +1°C° 0.6 mm 4 mps 717 mmHg 93%
    21:00 0°C° 0.6 mm 4 mps 717 mmHg 93%
    22:00 0°C° 0.1 mm 4 mps 717 mmHg 91%
    23:00 0°C° 0.1 mm 4 mps 718 mmHg 90%

    Tomorrow, 15 December, Friday

    Time Temperature Precipitation Wind Pressure Humidity
    00:00 0°C° 0.1 mm 4 mps 718 mmHg 89%
    01:00 0°C° 0 mm 4 mps 718 mmHg 90%
    02:00 -1°C° 0 mm 5 mps 719 mmHg 91%
    03:00 -2°C° 0 mm 5 mps 719 mmHg 91%
    04:00 -1°C° 0.2 mm 5 mps 719 mmHg 92%
    05:00 -1°C° 0.2 mm 4 mps 719 mmHg 93%
    06:00 -1°C° 0.2 mm 4 mps 719 mmHg 93%
    07:00 -1°C° 0.8 mm 5 mps 719 mmHg 93%
    08:00 -1°C° 0.8 mm 6 mps 719 mmHg 93%
    09:00 -1°C° 0.8 mm 6 mps 720 mmHg 93%
    10:00 +1°C° 0.1 mm 6 mps 720 mmHg 93%
    11:00 +1°C° 0.1 mm 5 mps 720 mmHg 94%
    12:00 +1°C° 0.1 mm 5 mps 720 mmHg 94%
    13:00 +1°C° 0.1 mm 4 mps 721 mmHg 94%
    14:00 +2°C° 0.1 mm 3 mps 721 mmHg 95%
    15:00 +3°C° 0.1 mm 2 mps 721 mmHg 96%
    16:00 +2°C° 0.1 mm 2 mps 721 mmHg 96%
    17:00 +3°C° 0.1 mm 1 mps 722 mmHg 96%
    18:00 +2°C° 0.1 mm 1 mps 722 mmHg 97%
    19:00 +2°C° 0 mm 1 mps 723 mmHg 96%
    20:00 +2°C° 0 mm 1 mps 723 mmHg 96%
    21:00 +2°C° 0 mm 1 mps 724 mmHg 96%
    22:00 +1°C° 0 mm 2 mps 725 mmHg 96%
    23:00 -1°C° 0 mm 2 mps 725 mmHg 96%

    Day after tomorrow, 16 December, Saturday

    Time Temperature Precipitation Wind Pressure Humidity
    00:00 -1°C° 0 mm 2 mps 726 mmHg 95%
    01:00 -1°C° 0 mm 2 mps 726 mmHg 95%
    02:00 -1°C° 0 mm 2 mps 727 mmHg 95%
    03:00 -1°C° 0 mm 2 mps 727 mmHg 96%
    04:00 -1°C° 0 mm 2 mps 728 mmHg 96%
    05:00 -1°C° 0 mm 2 mps 728 mmHg 96%
    06:00 -1°C° 0 mm 2 mps 729 mmHg 96%
    07:00 -1°C° 0 mm 2 mps 730 mmHg 95%
    08:00 -1°C° 0 mm 2 mps 730 mmHg 95%
    09:00 0°C° 0 mm 3 mps 731 mmHg 94%
    10:00 0°C° 0.1 mm 3 mps 732 mmHg 93%
    11:00 +1°C° 0.1 mm 3 mps 732 mmHg 92%
    12:00 +1°C° 0.1 mm 3 mps 732 mmHg 91%
    13:00 +1°C° 0.1 mm 3 mps 733 mmHg 90%
    14:00 0°C° 0.1 mm 4 mps 733 mmHg 90%
    15:00 0°C° 0.1 mm 4 mps 733 mmHg 90%
    16:00 -1°C° 0 mm 4 mps 734 mmHg 91%
    17:00 -1°C° 0 mm 4 mps 735 mmHg 92%
    18:00 -1°C° 0 mm 3 mps 735 mmHg 93%
    19:00 -1°C° 0 mm 3 mps 736 mmHg 93%
    20:00 -1°C° 0 mm 3 mps 736 mmHg 94%
    21:00 -1°C° 0 mm 3 mps 737 mmHg 94%
    22:00 -1°C° 0 mm 3 mps 737 mmHg 94%
    23:00 -1°C° 0 mm 3 mps 737 mmHg 94%

    17 December, Sunday

    Time Temperature Precipitation Wind Pressure Humidity
    00:00 -2°C° 0 mm 3 mps 738 mmHg 94%
    01:00 -2°C° 0.2 mm 4 mps 738 mmHg 93%
    02:00 -2°C° 0.2 mm 4 mps 738 mmHg 93%
    03:00 -2°C° 0.2 mm 4 mps 738 mmHg 92%
    04:00 -2°C° 0.2 mm 4 mps 739 mmHg 93%
    05:00 -2°C° 0.2 mm 4 mps 739 mmHg 93%
    06:00 -2°C° 0.2 mm 4 mps 739 mmHg 93%
    07:00 -2°C° 0.1 mm 4 mps 740 mmHg 93%
    08:00 -1°C° 0.1 mm 3 mps 740 mmHg 94%
    09:00 0°C° 0.1 mm 3 mps 741 mmHg 94%
    10:00 0°C° 0 mm 3 mps 741 mmHg 94%
    11:00 0°C° 0 mm 3 mps 741 mmHg 94%
    12:00 +1°C° 0 mm 3 mps 741 mmHg 94%
    13:00 +2°C° 0 mm 2 mps 741 mmHg 94%
    14:00 +2°C° 0 mm 2 mps 742 mmHg 95%
    15:00 +1°C° 0 mm 2 mps 742 mmHg 95%
    16:00 +1°C° 0 mm 2 mps 742 mmHg 95%
    17:00 +1°C° 0 mm 2 mps 742 mmHg 95%
    18:00 +1°C° 0 mm 2 mps 742 mmHg 96%
    19:00 +1°C° 0 mm 2 mps 742 mmHg 96%
    20:00 0°C° 0 mm 3 mps 742 mmHg 97%
    21:00 0°C° 0 mm 3 mps 742 mmHg 97%
    22:00 -1°C° 0.4 mm 4 mps 742 mmHg 97%
    23:00 0°C° 0.4 mm 4 mps 742 mmHg 97%

    18 December, Monday

    Time Temperature Precipitation Wind Pressure Humidity
    00:00 0°C° 0.4 mm 5 mps 741 mmHg 97%
    01:00 +1°C° 0.4 mm 6 mps 741 mmHg 97%
    02:00 +2°C° 0.4 mm 6 mps 740 mmHg 97%
    03:00 +2°C° 0.4 mm 6 mps 740 mmHg 96%
    04:00 +3°C° 1.4 mm 7 mps 739 mmHg 96%
    05:00 +3°C° 1.4 mm 7 mps 739 mmHg 96%
    06:00 +4°C° 1.4 mm 7 mps 739 mmHg 95%
    07:00 +4°C° 1 mm 6 mps 739 mmHg 95%
    08:00 +4°C° 1 mm 6 mps 739 mmHg 96%
    09:00 +6°C° 1 mm 5 mps 739 mmHg 96%
    10:00 +6°C° 0.4 mm 5 mps 739 mmHg 95%
    11:00 +6°C° 0.4 mm 5 mps 739 mmHg 95%
    12:00 +6°C° 0.4 mm 5 mps 739 mmHg 94%
    13:00 +6°C° 0.1 mm 5 mps 739 mmHg 93%
    14:00 +6°C° 0.1 mm 4 mps 740 mmHg 92%
    15:00 +5°C° 0.1 mm 4 mps 740 mmHg 91%
    16:00 +4°C° 0 mm 3 mps 740 mmHg 92%
    17:00 +3°C° 0 mm 3 mps 741 mmHg 92%
    18:00 +3°C° 0 mm 2 mps 742 mmHg 93%
    19:00 +3°C° 0 mm 2 mps 742 mmHg 93%
    20:00 +2°C° 0 mm 2 mps 743 mmHg 94%
    21:00 +2°C° 0 mm 1 mps 743 mmHg 94%
    22:00 +2°C° 0 mm 1 mps 743 mmHg 94%
    23:00 +2°C° 0 mm 1 mps 744 mmHg 94%

    19 December, Tuesday

    Time Temperature Precipitation Wind Pressure Humidity
    00:00 +2°C° 0 mm 1 mps 744 mmHg 94%
    01:00 +2°C° 0 mm 1 mps 744 mmHg 93%
    02:00 +3°C° 0 mm 1 mps 745 mmHg 92%
    03:00 +3°C° 0 mm 1 mps 745 mmHg 92%
    04:00 +3°C° 0 mm 1 mps 745 mmHg 91%
    05:00 +2°C° 0 mm 1 mps 745 mmHg 91%
    06:00 +2°C° 0 mm 1 mps 745 mmHg 91%
    07:00 +2°C° 0 mm 1 mps 746 mmHg 89%
    08:00 +2°C° 0 mm 0 mps 746 mmHg 88%
    09:00 +2°C° 0 mm 0 mps 747 mmHg 87%
    10:00 +3°C° 0 mm 0 mps 747 mmHg 84%
    11:00 +4°C° 0 mm 0 mps 747 mmHg 81%
    12:00 +5°C° 0 mm 0 mps 747 mmHg 78%
    13:00 +4°C° 0 mm 0 mps 747 mmHg 81%
    14:00 +3°C° 0 mm 0 mps 747 mmHg 84%
    15:00 +3°C° 0 mm 0 mps 747 mmHg 87%
    16:00 +2°C° 0 mm 0 mps 747 mmHg 87%
    17:00 +2°C° 0 mm 0 mps 747 mmHg 88%
    18:00 +1°C° 0 mm 0 mps 748 mmHg 89%
    19:00 +1°C° 0 mm 0 mps 748 mmHg 88%
    20:00 +1°C° 0 mm 0 mps 748 mmHg 88%
    21:00 +1°C° 0 mm 0 mps 749 mmHg 88%
    22:00 +1°C° 0 mm 0 mps 749 mmHg 88%
    23:00 0°C° 0 mm 0 mps 749 mmHg 88%
    Show more